Regional Weather Roundup
Issued by NWS

Home | Current Version | Previous Version | Text Only | Print | Product List | Glossary Off
Versions: 1 2 3 4 5 6 7 8 9 10 11 12 13 14 15 16 17 18 19 20 21 22 23 24 25 26 27 28 29 30 31 32 33 34 35 36 37 38 39 40 41 42 43 44 45 46 47 48 49 50

000
ASUS43 KMKX 280800
RWRWI

WISCONSIN REGIONAL WEATHER ROUNDUP
NATIONAL WEATHER SERVICE MILWAUKEE/SULLIVAN WI
200 AM CST FRI NOV 28 2014

NOTE: "FAIR" INDICATES FEW OR NO CLOUDS BELOW 12,000 FEET WITH NO
SIGNIFICANT WEATHER AND/OR OBSTRUCTIONS TO VISIBILITY.

WIZ001-002-006>008-014>016-023>028-280900-
NORTHWEST WISCONSIN

CITY           SKY/WX    TMP DP  RH WIND       PRES   REMARKS
SUPERIOR ARPT  CLOUDY     8  -1  66 CALM      30.24F
ASHLAND        CLOUDY     5   0  79 SE3       30.26F
HAYWARD        CLOUDY     7  -1  70 S5        30.22F WCI  -2
SIREN          LGT SNOW   8   4  84 SE3       30.23F
CUMBERLAND     LGT SNOW   9   3  78 S6        30.22S WCI  -1
RICE LAKE      LGT SNOW   8   3  79 SE6       30.26S WCI  -2
CHETEK         LGT SNOW   8   3  80 SE6       30.25F WCI  -2
LADYSMITH      CLOUDY     7   1  75 S3        30.27S
EAU CLAIRE     LGT SNOW   9   2  73 SE5       30.27S WCI   1
MENOMONIE      LGT SNOW  10   3  75 SE7       30.26F VSB 1   WCI  -2
NEW RICHMOND   LGT SNOW   9   4  82 SE8       30.22F WCI  -3
OSCEOLA        LGT SNOW  10   6  85 SE7       30.26F WCI  -2
$$

WIZ003>005-009-010-017-018-280900-
NORTH CENTRAL WISCONSIN

CITY           SKY/WX    TMP DP  RH WIND       PRES   REMARKS
MANITOWISH WTR CLOUDY    -3  -6  86 CALM      30.20F
ARBOR VITAE    CLOUDY     1  -3  83 CALM      30.21S
WOODRUFF       CLOUDY     1  -3  83 CALM      30.21S
RHINELANDER    CLOUDY    -1  -4  87 CALM      30.23S
EAGLE RIVER    CLOUDY    -3  -8  79 CALM      30.22S
LAND O LAKES   CLOUDY    -6 -11  81 CALM      30.22S
PHILLIPS       CLOUDY     2  -2  81 CALM      30.22S
TOMAHAWK       CLOUDY    -1  -4  85 CALM      30.25R
MEDFORD        CLOUDY     4   0  80 S3        30.23S
MERRILL        MOCLDY     1  -2  85 CALM      30.25S
$$

WIZ029-030-035-036-043>047-280900-
CENTRAL WISCONSIN

CITY           SKY/WX    TMP DP  RH WIND       PRES   REMARKS
WAUSAU         CLOUDY     5   1  83 CALM      30.27S
MOSINEE        MOCLDY     3   1  92 CALM      30.28S
MARSHFIELD     CLOUDY     7   1  76 S6        30.26F WCI  -3
STEVENS POINT  CLOUDY     1  -3  87 CALM      30.30S
WAUPACA        MOCLDY     6   1  83 CALM      30.33S
WAUTOMA        NOT AVBL
WISC RAPIDS    CLOUDY     6   1  80 CALM      30.31F
CAMP DOUGLAS   NOT AVBL
$$

WIZ011>013-019>022-031-037>040-048>050-280900-
NORTHEAST WISCONSIN

CITY           SKY/WX    TMP DP  RH WIND       PRES   REMARKS
ANTIGO         CLOUDY    -3  -6  87 CALM      30.25R
SHAWANO        FAIR       6   2  84 CALM      30.32F
OCONTO         PTCLDY     1  -1  88 CALM      30.34S
STURGEON BAY   PTCLDY     9   1  72 SW5       30.31S WCI   0
GREEN BAY      CLEAR      5   2  87 CALM      30.34S
MANITOWOC      NOT AVBL
APPLETON       MOCLDY     7   1  78 SW3       30.32S
CLINTONVILLE   PTCLDY     1  -2  85 CALM      30.32F
OSHKOSH        MOCLDY     7   1  76 MISG      30.33S
$$

WIZ032>034-041-042-053>061-280900-
SOUTHWEST WISCONSIN

CITY           SKY/WX    TMP DP  RH WIND       PRES   REMARKS
LA CROSSE      FLURRIES  14   5  67 SE10      30.29F WCI   1
SPARTA         CLOUDY    11   5  75 CALM      30.31F
VIROQUA        CLOUDY    11   4  71 S6        30.26F WCI   2
BOSCOBEL       LGT SNOW  15   6  67 E3        30.33F
PRAIRIE DU CHI FLURRIES  15   6  67 E5        30.32F WCI   7
PLATTEVILLE    MOCLDY    14   6  70 CALM      30.32S
$$

WIZ056-057-062-063-064-067-068-280900-
SOUTH CENTRAL WISCONSIN

CITY           SKY/WX    TMP DP  RH WIND       PRES   REMARKS
REEDSBURG      CLOUDY    10   5  79 CALM      30.32S
BARABOO/DELLS  CLOUDY    10   5  78 CALM      30.31F
LONE ROCK      NOT AVBL
MINERAL POINT  CLOUDY    16   5  62 SE3       30.30R
MADISON        CLOUDY    14   5  67 VRB6      30.34R WCI   5
MIDDLETON      CLOUDY    16   8  71 S6        30.33F WCI   7
WATERTOWN      MOCLDY    10   7  90 CALM      30.34R
MONROE         MOCLDY    14  10  85 CALM      30.31F
JANESVILLE     CLOUDY    18  10  73 CALM      30.35S
$$

WIZ051-052-058>065-066-070>072-280900-
SOUTHEAST WISCONSIN

CITY           SKY/WX    TMP DP  RH WIND       PRES   REMARKS
MILWAUKEE      MOCLDY    15   7  70 W3        30.35S
WAUKESHA       PTCLDY    10   9  92 CALM      30.35R
MILWAUKEE/TIMM MOCLDY    12   7  79 CALM      30.35F
RACINE         PTCLDY    13   8  81 W5        30.37S WCI   5
BURLINGTON     MOCLDY    10   8  90 CALM      30.35R
KENOSHA        MOCLDY    13   9  84 W5        30.36R WCI   5
FOND DU LAC    CLOUDY     7   3  84 CALM      30.34R
SHEBOYGAN      PTCLDY     7   3  84 W3        30.34S
WEST BEND      PTCLDY     9   5  85 CALM      30.33R
JUNEAU         CLOUDY     9   6  89 CALM      30.34R
$$

LSZ147-162-280900-
LAKE SUPERIOR

STATION/POSITION TIME  TEMP    WIND        PRES    WAVE
                       AIR SEA DIR/SP/G            HT/PER
                 (UTC) (F)     (DEG/KT/KT) (MB)    (FT/S)
DEVILS ISLAND    0700   13     210/  8/ 12 1026.5F
PORT WING        0700    7     190/  4/  6 1025.7R
SAXON HARBOR     0700    5        CALM     1025.7F
$$

LMZ867-665-643>646-280900-
LAKE MICHIGAN

STATION/POSITION TIME  TEMP    WIND        PRES    WAVE
                       AIR SEA DIR/SP/G            HT/PER
                 (UTC) (F)     (DEG/KT/KT) (MB)    (FT/S)
CHAMBERS ISLAND  0700   14     270/  2/  6 1026.8F
N MID LAKE BUOY  0650   19 42  250/  8/ 12 1027.4F   1/ 4
NORTHPORT PIER   0714   15     280/  3/ 11 1026.4F
SISTER BAY       0713          330/  9/ 10   N/A
KEWAUNEE LAKESHO 0700    6     300/  4/  7 1026.6F
SHEBOYGAN LAKESH 0700   11 34  260/  6/  7 1029.2F
PORT WASHINGTON  0720   12     280/  4/ 17 1028.4F
MILWAUKEE LAKESH 0700   16     320/  3/  4   N/A
S MID LAKE BUOY  0650   23 42  240/  6/ 10 1028.9F   3/ 7
KENOSHA   LAKESH 0700   15     300/  4/  5 1027.8F
$$

TC  - TEMPERATURE IN CELSIUS
VSB - VISIBILITY IN STATUTE MILES
WCI - WIND CHILL INDEX
HX  - HEAT INDEX




USA.gov is the U.S. government's official web portal to all federal, state and local government web resources and services.